| time (UTC) | temp F | wind direction | speed MPH | gust MPH | rain 1hr in | rain 24hr in | rain mn in | humidity % | barometer mb |
| 20260502214621 | 68 | 191 | 7.0 | 13.0 | 0.00 | 0.00 | 0.00 | 12 | 1017.8 |
| 20260502213630 | 68 | 259 | 10.0 | 15.0 | 0.00 | 0.00 | 0.00 | 12 | 1018.0 |
| 20260502212617 | 68 | 200 | 9.0 | 15.0 | 0.00 | 0.00 | 0.00 | 12 | 1018.1 |
| 20260502211627 | 67 | 258 | 6.0 | 14.0 | 0.00 | 0.00 | 0.00 | 13 | 1018.2 |
| 20260502210614 | 68 | 206 | 11.0 | 19.0 | 0.00 | 0.00 | 0.00 | 13 | 1018.4 |
| 20260502205653 | 68 | 190 | 10.0 | 19.0 | 0.00 | 0.00 | 0.00 | 13 | 1018.5 |
| 20260502204623 | 67 | 159 | 8.0 | 15.0 | 0.00 | 0.00 | 0.00 | 13 | 1018.6 |
| 20260502203617 | 67 | 202 | 8.0 | 16.0 | 0.00 | 0.00 | 0.00 | 14 | 1018.7 |
| 20260502202624 | 67 | 163 | 7.0 | 18.0 | 0.00 | 0.00 | 0.00 | 14 | 1018.9 |
| 20260502201632 | 67 | 234 | 4.0 | 13.0 | 0.00 | 0.00 | 0.00 | 13 | 1018.9 |
| 20260502200621 | 67 | 203 | 8.0 | 16.0 | 0.00 | 0.00 | 0.00 | 14 | 1018.9 |
| 20260502195625 | 66 | 194 | 10.0 | 15.0 | 0.00 | 0.00 | 0.00 | 15 | 1019.1 |
| 20260502194652 | 66 | 178 | 8.0 | 18.0 | 0.00 | 0.00 | 0.00 | 15 | 1019.1 |
| 20260502193616 | 66 | 177 | 7.0 | 19.0 | 0.00 | 0.00 | 0.00 | 15 | 1019.3 |
| 20260502192624 | 66 | 224 | 10.0 | 16.0 | 0.00 | 0.00 | 0.00 | 17 | 1019.3 |
| 20260502191616 | 65 | 229 | 8.0 | 16.0 | 0.00 | 0.00 | 0.00 | 16 | 1019.5 |
| 20260502190624 | 65 | 232 | 11.0 | 16.0 | 0.00 | 0.00 | 0.00 | 16 | 1019.6 |
| 20260502185618 | 66 | 226 | 9.0 | 20.0 | 0.00 | 0.00 | 0.00 | 16 | 1019.6 |
| 20260502184624 | 66 | 216 | 10.0 | 16.0 | 0.00 | 0.00 | 0.00 | 16 | 1019.7 |
| 20260502183616 | 65 | 232 | 8.0 | 15.0 | 0.00 | 0.00 | 0.00 | 17 | 1019.8 |
| 20260502182625 | 65 | 223 | 9.0 | 17.0 | 0.00 | 0.00 | 0.00 | 16 | 1019.9 |
| 20260502181614 | 65 | 198 | 7.0 | 15.0 | 0.00 | 0.00 | 0.00 | 17 | 1019.9 |
| 20260502180614 | 65 | 198 | 8.0 | 14.0 | 0.00 | 0.00 | 0.00 | 17 | 1019.9 |
| 20260502163627 | 61 | 236 | 4.0 | 13.0 | 0.00 | 0.00 | 0.00 | 22 | 1020.1 |
| 20260502162618 | 61 | 181 | 5.0 | 9.0 | 0.00 | 0.00 | 0.00 | 22 | 1020.1 |
| 20260502161646 | 60 | 215 | 4.0 | 9.0 | 0.00 | 0.00 | 0.00 | 22 | 1020.1 |
| 20260502160612 | 60 | 254 | 3.0 | 8.0 | 0.00 | 0.00 | 0.00 | 21 | 1020.1 |
| 20260502151624 | 59 | 173 | 4.0 | 6.0 | 0.00 | 0.00 | 0.00 | 23 | 1020.1 |
| 20260502150617 | 59 | 185 | 4.0 | 6.0 | 0.00 | 0.00 | 0.00 | 23 | 1020.1 |
| 20260502130612 | 44 | 34 | 5.0 | 6.0 | 0.00 | 0.00 | 0.00 | 38 | 1019.5 |
| 20260502123627 | 38 | 18 | 5.0 | 8.0 | 0.00 | 0.00 | 0.00 | 43 | 1019.4 |
| 20260502122619 | 39 | 5 | 6.0 | 7.0 | 0.00 | 0.00 | 0.00 | 42 | 1019.4 |
| 20260502121630 | 43 | 19 | 4.0 | 8.0 | 0.00 | 0.00 | 0.00 | 37 | 1019.3 |
| 20260502120621 | 42 | 13 | 6.0 | 8.0 | 0.00 | 0.00 | 0.00 | 38 | 1019.3 |
| 20260502115617 | 41 | 18 | 6.0 | 8.0 | 0.00 | 0.00 | 0.00 | 39 | 1019.3 |
| 20260502114630 | 41 | 14 | 5.0 | 6.0 | 0.00 | 0.00 | 0.00 | 39 | 1019.3 |
| 20260502113618 | 40 | 13 | 5.0 | 7.0 | 0.00 | 0.00 | 0.00 | 39 | 1019.4 |
| 20260502112629 | 39 | 13 | 5.0 | 6.0 | 0.00 | 0.00 | 0.00 | 40 | 1019.4 |
| 20260502111637 | 42 | 12 | 6.0 | 8.0 | 0.00 | 0.00 | 0.00 | 37 | 1019.4 |
| 20260502110628 | 43 | 15 | 4.0 | 6.0 | 0.00 | 0.00 | 0.00 | 36 | 1019.4 |
| 20260502105625 | 41 | 20 | 5.0 | 9.0 | 0.00 | 0.00 | 0.00 | 39 | 1019.5 |
| 20260502104630 | 42 | 5 | 5.0 | 8.0 | 0.00 | 0.00 | 0.00 | 38 | 1019.5 |
| 20260502103615 | 42 | 11 | 5.0 | 9.0 | 0.00 | 0.00 | 0.00 | 38 | 1019.4 |
| 20260502102628 | 43 | 360 | 7.0 | 9.0 | 0.00 | 0.00 | 0.00 | 38 | 1019.3 |
| 20260502101617 | 41 | 5 | 5.0 | 8.0 | 0.00 | 0.00 | 0.00 | 41 | 1019.4 |
| 20260502100645 | 41 | 360 | 6.0 | 6.0 | 0.00 | 0.00 | 0.00 | 41 | 1019.4 |
| 20260502090625 | 41 | 5 | 5.0 | 6.0 | 0.00 | 0.00 | 0.00 | 41 | 1019.6 |
| 20260502070623 | 40 | 355 | 6.0 | 10.0 | 0.00 | 0.00 | 0.00 | 39 | 1019.8 |
| 20260502065627 | 42 | 355 | 8.0 | 10.0 | 0.00 | 0.00 | 0.00 | 37 | 1019.8 |
| 20260502064612 | 43 | 355 | 8.0 | 10.0 | 0.00 | 0.00 | 0.00 | 37 | 1019.7 |
| 20260502063618 | 43 | 355 | 8.0 | 10.0 | 0.00 | 0.00 | 0.00 | 36 | 1019.7 |
| 20260502062623 | 42 | 349 | 6.0 | 9.0 | 0.00 | 0.00 | 0.00 | 38 | 1019.7 |
| 20260502060613 | 42 | 355 | 8.0 | 10.0 | 0.00 | 0.00 | 0.00 | 37 | 1019.8 |
| 20260502055613 | 42 | 355 | 8.0 | 9.0 | 0.00 | 0.00 | 0.00 | 37 | 1019.8 |
| 20260502054639 | 41 | 355 | 7.0 | 9.0 | 0.00 | 0.00 | 0.00 | 39 | 1019.8 |
| 20260502053626 | 40 | 360 | 8.0 | 9.0 | 0.00 | 0.00 | 0.00 | 40 | 1019.8 |
| 20260502052639 | 41 | 360 | 8.0 | 9.0 | 0.00 | 0.00 | 0.00 | 37 | 1019.8 |
| 20260502051627 | 42 | 360 | 5.0 | 8.0 | 0.00 | 0.00 | 0.00 | 36 | 1019.8 |
| 20260502050635 | 42 | 360 | 6.0 | 9.0 | 0.00 | 0.00 | 0.00 | 37 | 1019.8 |
| 20260502045631 | 42 | 360 | 7.0 | 9.0 | 0.00 | 0.00 | 0.00 | 38 | 1019.8 |
| 20260502044622 | 42 | 355 | 6.0 | 9.0 | 0.00 | 0.00 | 0.00 | 37 | 1019.9 |
| 20260502043630 | 41 | 360 | 5.0 | 9.0 | 0.00 | 0.00 | 0.00 | 36 | 1019.9 |
| 20260502042615 | 40 | 360 | 8.0 | 9.0 | 0.00 | 0.00 | 0.00 | 37 | 1019.9 |
| 20260502041624 | 41 | 5 | 5.0 | 9.0 | 0.00 | 0.00 | 0.00 | 36 | 1019.9 |
| 20260502040638 | 41 | 360 | 7.0 | 10.0 | 0.00 | 0.00 | 0.00 | 38 | 1019.7 |
| 20260502035620 | 43 | 360 | 6.0 | 8.0 | 0.00 | 0.00 | 0.00 | 35 | 1019.6 |
| 20260502034627 | 43 | 360 | 6.0 | 8.0 | 0.00 | 0.00 | 0.00 | 34 | 1019.5 |
| 20260502033634 | 43 | 5 | 7.0 | 9.0 | 0.00 | 0.00 | 0.00 | 36 | 1019.5 |
| 20260502032624 | 45 | 360 | 5.0 | 6.0 | 0.00 | 0.00 | 0.00 | 32 | 1019.4 |
| 20260502031612 | 46 | 12 | 4.0 | 5.0 | 0.00 | 0.00 | 0.00 | 31 | 1019.3 |
| 20260502030616 | 47 | 16 | 4.0 | 6.0 | 0.00 | 0.00 | 0.00 | 30 | 1019.0 |
| 20260502025653 | 45 | 12 | 5.0 | 6.0 | 0.00 | 0.00 | 0.00 | 32 | 1018.9 |
| 20260502024619 | 51 | 355 | 4.0 | 6.0 | 0.00 | 0.00 | 0.00 | 28 | 1018.7 |
| 20260502023631 | 55 | 43 | 4.0 | 5.0 | 0.00 | 0.00 | 0.00 | 23 | 1018.6 |
| 20260502022618 | 57 | 117 | 2.0 | 4.0 | 0.00 | 0.00 | 0.00 | 21 | 1018.4 |
| 20260502021644 | 58 | 119 | 3.0 | 4.0 | 0.00 | 0.00 | 0.00 | 20 | 1018.4 |
| 20260502020630 | 59 | 119 | 2.0 | 3.0 | 0.00 | 0.00 | 0.00 | 20 | 1018.3 |
| 20260502015615 | 60 | 119 | 3.0 | 6.0 | 0.00 | 0.00 | 0.00 | 19 | 1018.3 |
| 20260502014623 | 61 | 122 | 3.0 | 6.0 | 0.00 | 0.00 | 0.00 | 18 | 1018.2 |
| 20260502013627 | 61 | 122 | 3.0 | 7.0 | 0.00 | 0.00 | 0.00 | 19 | 1018.2 |
| 20260502012653 | 62 | 142 | 5.0 | 9.0 | 0.00 | 0.00 | 0.00 | 18 | 1018.2 |
| 20260502011621 | 62 | 124 | 6.0 | 9.0 | 0.00 | 0.00 | 0.00 | 18 | 1018.1 |
| 20260502010628 | 63 | 128 | 5.0 | 9.0 | 0.00 | 0.00 | 0.00 | 18 | 1018.1 |
| 20260502005628 | 63 | 113 | 4.0 | 10.0 | 0.00 | 0.00 | 0.00 | 18 | 1018.0 |
| 20260502004632 | 63 | 134 | 6.0 | 11.0 | 0.00 | 0.00 | 0.00 | 17 | 1017.9 |
| 20260502003642 | 63 | 128 | 3.0 | 12.0 | 0.00 | 0.00 | 0.00 | 17 | 1017.8 |
| 20260502002628 | 63 | 86 | 4.0 | 9.0 | 0.00 | 0.00 | 0.00 | 17 | 1017.8 |
| 20260502001617 | 64 | 146 | 5.0 | 8.0 | 0.00 | 0.00 | 0.00 | 17 | 1018.2 |
| 20260502000627 | 64 | 72 | 5.0 | 9.0 | 0.00 | 0.00 | 0.00 | 18 | 1018.2 |
| 20260501235623 | 64 | 113 | 2.0 | 8.0 | 0.00 | 0.00 | 0.00 | 17 | 1018.2 |
| 20260501234614 | 64 | 138 | 9.0 | 13.0 | 0.00 | 0.00 | 0.00 | 17 | 1018.3 |
| 20260501233642 | 64 | 128 | 7.0 | 13.0 | 0.00 | 0.00 | 0.00 | 17 | 1018.3 |
| 20260501232649 | 64 | 223 | 9.0 | 12.0 | 0.00 | 0.00 | 0.00 | 17 | 1018.3 |
| 20260501231635 | 64 | 147 | 8.0 | 13.0 | 0.00 | 0.00 | 0.00 | 18 | 1018.4 |
| 20260501230625 | 64 | 355 | 3.0 | 11.0 | 0.00 | 0.00 | 0.00 | 17 | 1018.4 |
| 20260501225620 | 63 | 184 | 3.0 | 8.0 | 0.00 | 0.00 | 0.00 | 17 | 1018.4 |
| 20260501224649 | 64 | 108 | 5.0 | 12.0 | 0.00 | 0.00 | 0.00 | 17 | 1018.6 |
| 20260501223614 | 64 | 134 | 6.0 | 12.0 | 0.00 | 0.00 | 0.00 | 17 | 1018.5 |
| 20260501222619 | 64 | 137 | 7.0 | 11.0 | 0.00 | 0.00 | 0.00 | 17 | 1018.7 |
| 20260501221631 | 63 | 360 | 3.0 | 6.0 | 0.00 | 0.00 | 0.00 | 17 | 1018.9 |
| 20260501220618 | 63 | 113 | 7.0 | 10.0 | 0.00 | 0.00 | 0.00 | 18 | 1019.1 |
| 20260501215634 | 63 | 143 | 7.0 | 19.0 | 0.00 | 0.00 | 0.00 | 19 | 1019.1 |